Weather History for KMWO - September, 2012

Change the Weather History Date:

Thursday, September 20, 2012

  Actual Average (KDAY) Record (KDAY)
Temperature  
Mean Temperature 56 °F 64 °F  
Max Temperature 72 °F 74 °F 95 °F (1908)
Min Temperature 40 °F 53 °F 36 °F (1991)
Degree Days  
Heating Degree Days 9 4  
Month to date heating degree days 36  
Since 1 July heating degree days 38  
Cooling Degree Days 0 2  
Month to date cooling degree days 82  
Year to date cooling degree days 864  
Growing Degree Days 6 (Base 50)    
Moisture  
Dew Point 52 °F    
Average Humidity 81    
Maximum Humidity 100    
Minimum Humidity 49    
Precipitation  
Precipitation 0.00 in 0.11 in 1.73 in (1932)
Month to date precipitation 2.22  
Year to date precipitation 30.53  
Snow  
Snow 0.00 in 0.00 in - ()
Month to date snowfall 0.0  
Since 1 July snowfall 0.0  
Since 1 September snowfall 0.0  
Snow Depth -    
Sea Level Pressure  
Sea Level Pressure 30.01 in    
Wind  
Wind Speed 3 mph (SW)    
Max Wind Speed 18 mph    
Max Gust Speed 26 mph    
Visibility 10 miles    
Events Rain    
T = Trace of Precipitation, MM = Missing Value Source: NWS Daily Summary

Daily Weather History Graph

Daily Weather History Graph

Search for Another Location

Airport or City:

Trip Planner

Search our weather history database for the weather conditions in past years. The results will help you decide how hot, cold, wet, or windy it might be!

Date:

Astronomy

Sep. 20, 2012 Rise Set
Actual Time 7:23 AM EDT 7:37 PM EDT
Civil Twilight 6:56 AM EDT 8:03 PM EDT
Nautical Twilight 6:25 AM EDT 8:35 PM EDT
Astronomical Twilight 5:53 AM EDT 9:07 PM EDT
Moon 12:39 PM EDT (9/20) 10:39 PM EDT (9/20)
Length of Visible Light 13h 07m
Length of Day
12h 13m
Waxing Crescent, 26% of the Moon is Illuminated
Sep 20
Waxing Crescent
Sep 22
First Quarter
Sep 29
Full
Oct 8
Last Quarter
Oct 15
New

Hourly Weather History & Observations

Time (EDT) Temp. Windchill Dew Point Humidity Pressure Visibility Wind Dir Wind Speed Gust Speed Precip Events Conditions
12:35 AM 47.7 °F - 47.3 °F 99% 30.10 in 10.0 mi Calm Calm - N/A   Clear
12:55 AM 47.7 °F - 47.3 °F 99% 30.10 in 10.0 mi Calm Calm - N/A   Clear
1:15 AM 47.7 °F - 47.5 °F 99% 30.09 in 10.0 mi Calm Calm - N/A   Clear
1:35 AM 47.7 °F - 47.5 °F 99% 30.09 in 10.0 mi Calm Calm - N/A   Clear
1:55 AM 47.7 °F - 47.7 °F 100% 30.08 in 10.0 mi Calm Calm - N/A   Clear
2:15 AM 47.7 °F - 47.7 °F 100% 30.08 in 10.0 mi Calm Calm - N/A   Clear
2:35 AM 47.7 °F - 47.7 °F 100% 30.09 in 10.0 mi Calm Calm - N/A   Clear
2:55 AM 47.7 °F - 47.7 °F 100% 30.08 in 10.0 mi Calm Calm - N/A   Clear
3:15 AM 47.7 °F - 47.7 °F 100% 30.08 in 10.0 mi Calm Calm - N/A   Clear
3:35 AM 46.4 °F - 46.4 °F 100% 30.08 in 10.0 mi Calm Calm - N/A   Clear
3:55 AM 47.7 °F - 47.7 °F 100% 30.08 in 10.0 mi Calm Calm - N/A   Clear
4:15 AM 45.1 °F - 45.1 °F 100% 30.08 in 10.0 mi Calm Calm - N/A   Clear
4:35 AM 45.1 °F - 45.1 °F 100% 30.07 in 10.0 mi Calm Calm - N/A   Clear
4:55 AM 45.1 °F - 45.1 °F 100% 30.07 in 10.0 mi Calm Calm - N/A   Clear
5:15 AM 43.0 °F - 43.0 °F 100% 30.07 in 10.0 mi Calm Calm - N/A   Clear
5:35 AM 45.1 °F - 45.1 °F 100% 30.06 in 10.0 mi Calm Calm - N/A   Clear
6:15 AM 41.7 °F - 41.7 °F 100% 30.05 in 1.5 mi Calm Calm - N/A   Mist
6:35 AM 42.8 °F - 42.8 °F 100% 30.05 in 0.8 mi Calm Calm - N/A   Mist
6:55 AM 43.0 °F - 43.0 °F 100% 30.05 in 5.0 mi Calm Calm - N/A   Clear
7:15 AM 41.5 °F - 41.5 °F 100% 30.05 in 7.0 mi Calm Calm - N/A   Clear
7:35 AM 40.5 °F 38.4 °F 40.5 °F 100% 30.05 in 10.0 mi SW 3.5 mph - N/A   Clear
7:55 AM 45.1 °F - 45.1 °F 100% 30.05 in 10.0 mi Calm Calm - N/A   Clear
8:15 AM 47.7 °F - 47.7 °F 100% 30.05 in 10.0 mi Calm Calm - N/A   Clear
8:35 AM 50.0 °F - 49.6 °F 99% 30.04 in 10.0 mi Calm Calm - N/A   Clear
8:55 AM 52.7 °F - 48.4 °F 85% 30.04 in 10.0 mi SW 4.6 mph - N/A   Clear
9:15 AM 55.4 °F - 48.9 °F 79% 30.04 in 10.0 mi SSW 5.8 mph - N/A   Clear
9:35 AM 57.7 °F - 50.2 °F 76% 30.03 in 10.0 mi SSW 9.2 mph - N/A   Clear
9:55 AM 58.1 °F - 48.2 °F 70% 30.03 in 10.0 mi SSW 9.2 mph - N/A   Clear
10:15 AM 60.8 °F - 49.6 °F 67% 30.03 in 10.0 mi SSW 8.1 mph - N/A   Clear
10:35 AM 61.3 °F - 49.6 °F 65% 30.03 in 10.0 mi SW 9.2 mph - N/A   Clear
10:55 AM 67.1 °F - 52.0 °F 58% 30.02 in 10.0 mi SW 18.4 mph 23.0 mph N/A   Clear
11:15 AM 65.8 °F - 50.0 °F 57% 30.00 in 10.0 mi SW 13.8 mph 20.7 mph N/A   Clear
11:35 AM 67.6 °F - 51.4 °F 56% 29.99 in 10.0 mi SSW 13.8 mph 21.9 mph N/A   Clear
11:55 AM 68.5 °F - 50.5 °F 53% 29.98 in 10.0 mi SW 15.0 mph 19.6 mph N/A   Clear
12:15 PM 67.6 °F - 49.1 °F 51% 29.99 in 10.0 mi SW 15.0 mph 21.9 mph N/A   Clear
12:35 PM 72.7 °F - 52.9 °F 50% 29.99 in 10.0 mi SW 16.1 mph 21.9 mph N/A   Clear
12:55 PM 72.7 °F - 52.5 °F 49% 29.98 in 10.0 mi SW 16.1 mph 26.5 mph N/A   Clear
1:15 PM 72.7 °F - 52.7 °F 49% 29.98 in 10.0 mi SSW 17.3 mph 23.0 mph N/A   Clear
1:35 PM 68.4 °F - 50.9 °F 54% 29.99 in 10.0 mi SW 12.7 mph 20.7 mph N/A   Clear
1:55 PM 67.6 °F - 51.1 °F 55% 29.99 in 10.0 mi SW 11.5 mph - N/A   Clear
2:15 PM 70.7 °F - 52.9 °F 53% 29.97 in 10.0 mi SSW 11.5 mph 19.6 mph N/A   Clear
2:35 PM 67.6 °F - 51.4 °F 56% 29.97 in 10.0 mi SSW 13.8 mph - N/A   Clear
2:55 PM 67.6 °F - 52.5 °F 58% 29.97 in 10.0 mi SW 9.2 mph - N/A   Clear
3:15 PM 71.2 °F - 55.0 °F 56% 29.97 in 10.0 mi WSW 6.9 mph - N/A   Scattered Clouds
3:35 PM 70.2 °F - 55.0 °F 59% 29.97 in 10.0 mi SSW 6.9 mph - N/A   Scattered Clouds
3:55 PM 70.5 °F - 56.1 °F 60% 29.96 in 10.0 mi SSW 6.9 mph - N/A   Mostly Cloudy
4:15 PM 71.2 °F - 56.3 °F 59% 29.95 in 10.0 mi SSW 8.1 mph - N/A   Mostly Cloudy
4:35 PM 67.6 °F - 57.7 °F 71% 29.95 in 10.0 mi SW 5.8 mph - N/A Rain Light Rain
4:55 PM 67.6 °F - 57.7 °F 71% 29.95 in 10.0 mi SW 6.9 mph - N/A   Mostly Cloudy
5:15 PM 67.6 °F - 58.1 °F 71% 29.95 in 10.0 mi WSW 5.8 mph - N/A   Mostly Cloudy
5:35 PM 67.6 °F - 56.3 °F 67% 29.95 in 10.0 mi WSW 5.8 mph - N/A   Mostly Cloudy
5:55 PM 68.9 °F - 57.7 °F 68% 29.95 in 10.0 mi WSW 4.6 mph - N/A   Mostly Cloudy
6:15 PM 67.6 °F - 56.7 °F 68% 29.95 in 10.0 mi West 3.5 mph - N/A   Mostly Cloudy
6:35 PM 67.6 °F - 56.5 °F 67% 29.95 in 10.0 mi West 3.5 mph - N/A   Mostly Cloudy
6:55 PM 67.6 °F - 57.7 °F 71% 29.96 in 10.0 mi Calm Calm - N/A   Mostly Cloudy
7:15 PM 67.6 °F - 57.4 °F 70% 29.95 in 7.0 mi Calm Calm - N/A   Mostly Cloudy
7:35 PM 67.6 °F - 59.5 °F 75% 29.96 in 10.0 mi Calm Calm - N/A   Mostly Cloudy
7:55 PM 65.3 °F - 60.6 °F 85% 29.96 in 10.0 mi Calm Calm - N/A   Overcast
8:15 PM 62.6 °F - 60.3 °F 92% 29.96 in 10.0 mi Calm Calm - N/A   Overcast
8:35 PM 62.6 °F - 59.9 °F 91% 29.97 in 10.0 mi Calm Calm - N/A   Overcast
8:55 PM 61.2 °F - 59.7 °F 95% 29.97 in 10.0 mi Calm Calm - N/A   Overcast
9:15 PM 61.2 °F - 59.5 °F 94% 29.97 in 10.0 mi Calm Calm - N/A   Overcast
9:35 PM 60.8 °F - 59.9 °F 97% 29.97 in 10.0 mi Calm Calm - N/A   Overcast
9:55 PM 60.8 °F - 59.4 °F 95% 29.98 in 10.0 mi Calm Calm - N/A Rain Light Rain
10:15 PM 60.8 °F - 59.2 °F 94% 29.97 in 10.0 mi Calm Calm - N/A   Overcast
10:35 PM 60.1 °F - 59.5 °F 98% 29.97 in 10.0 mi Calm Calm - N/A   Overcast
10:55 PM 60.1 °F - 59.9 °F 99% 29.96 in 10.0 mi Calm Calm - N/A   Overcast
11:15 PM 59.0 °F - 58.6 °F 99% 29.97 in 10.0 mi Calm Calm - N/A   Overcast
11:35 PM 60.1 °F - 59.5 °F 98% 29.97 in 10.0 mi WNW 3.5 mph - N/A   Overcast
11:55 PM 60.1 °F - 59.0 °F 96% 29.97 in 10.0 mi West 3.5 mph - N/A   Overcast